{"data":{"norad_id":56541,"intl_designator":"2023-065AQ","name":"STARLINK-6249","alt_names":[],"object_type":"PAYLOAD","status":"ACTIVE","operator":null,"country":"US","launch_date":"2023-05-14","launch_site_code":"AFETR","launch_vehicle":null,"mission":null,"orbit_class":"UNKNOWN","rcs_meters":null,"size_class":null,"mass_kg":null,"dimensions":null,"purposes":["comms"],"wikipedia_slug":null,"has_3d_model":false,"image_url":null,"decayed_at":null,"tle_current":{"epoch":"2026-09-19T22:00:04.906944Z","epoch_age_seconds":165174,"freshness":"FRESH","line1":"1 56541U 23065AQ  26262.91672346  .00000278  00000+0  19635-4 0  9997","line2":"2 56541  43.0021 206.9536 0001515 265.9829  94.0850 15.27576035186177","mean_motion":15.27576035,"eccentricity":0.0001515,"inclination_deg":43.0021,"raan_deg":206.9536,"arg_perigee_deg":265.9829,"mean_anomaly_deg":94.085,"bstar":1.9635e-5,"rev_number":18617,"period_min":94.266993393884,"perigee_km":482.02149720948,"apogee_km":484.10044019399,"semimajor_km":6861.1979687017,"source":"CELESTRAK","updated_at":"2026-09-21T09:00:33.476920Z"}}}